Regional Weather Roundup
Issued by NWS

Home | Current Version | Previous Version | Graphics & Text | Print | Product List | Glossary On
Versions: 1 2 3 4 5 6 7 8 9 10 11 12 13 14 15 16 17 18 19 20 21 22 23 24 25 26 27 28 29 30 31 32 33 34 35 36 37 38 39 40 41 42 43 44 45 46 47 48 49 50
000
ASUS43 KOAX 230102
RWRNE

WEATHER ROUNDUP FOR NEBRASKA
NATIONAL WEATHER SERVICE OMAHA NE
800 PM CDT MON SEP 22 2014

NOTES: SATELLITE DATA IS BEING USED TO AUGMENT CLOUD COVER ABOVE
       12000 FEET.
       "FAIR" INDICATES FEW OR NO CLOUDS BELOW 12,000 FEET WITH NO
       SIGNIFICANT WEATHER AND/OR OBSTRUCTIONS TO VISIBILITY.

  * THESE STATIONS DO NOT REPORT WEATHER SUCH AS RAIN...SNOW OR FOG.

NEZ001>004-019>022-054>056-230200-
NEBRASKA PANHANDLE

CITY           SKY/WX    TMP DP  RH WIND       PRES   REMARKS
SCOTTSBLUFF    PTCLDY    62  58  86 E6        30.05R
ALLIANCE       PTCLDY    63  55  75 S13       30.05S
CHADRON        CLOUDY    67  56  67 S5        29.99S
KIMBALL        PTCLDY    65  52  62 NE7       30.08S
SIDNEY         CLOUDY    66  55  67 SE17G24   30.07F
$$

NEZ057>060-069>072-079>082-230200-
SOUTHWEST NEBRASKA

CITY           SKY/WX    TMP DP  RH WIND       PRES   REMARKS
NORTH PLATTE   LGT RAIN  58  54  86 SE15      30.10F
IMPERIAL       CLOUDY    69  48  47 SE15      30.09R
LEXINGTON      CLOUDY    62  56  79 E7        30.13R
MCCOOK         CLOUDY    72  45  37 SE10      30.10R
OGALLALA       CLOUDY    65  55  69 SE9       30.05F
$$

NEZ005>010-023>029-035>040-094-230200-
NORTH CENTRAL NEBRASKA

CITY           SKY/WX    TMP DP  RH WIND       PRES   REMARKS
VALENTINE      LGT RAIN  61  54  77 S10       30.06F
AINSWORTH      CLOUDY    58  54  85 S12       30.09S
BROKEN BOW     LGT RAIN  60  56  86 SE7       30.15R
O`NEILL        CLOUDY    68  52  57 S12       30.11F
ORD            LGT RAIN  60  56  86 S5        30.13S
THEDFORD       CLOUDY    60  55  83 SE15G23   30.09F
$$

NEZ041-046>049-061>064-073>077-083>087-230200-
SOUTH CENTRAL NEBRASKA

CITY           SKY/WX    TMP DP  RH WIND       PRES   REMARKS
GRAND ISLAND   CLOUDY    67  49  52 S7        30.17R
AURORA         CLOUDY    66  48  51 S6        30.17R
HASTINGS       CLOUDY    67  47  48 SE8       30.16R
HEBRON         CLOUDY    63  51  65 SE3       30.17S
HOLDREGE       CLOUDY    66  48  51 SE7       30.13S
KEARNEY *      CLOUDY    66  48  52 E5        30.16R
$$

NEZ011>018-030>034-042>045-230200-
NORTHEAST NEBRASKA

CITY           SKY/WX    TMP DP  RH WIND       PRES   REMARKS
NORFOLK        CLOUDY    66  50  56 S8        30.15R
ALBION         CLOUDY    64  52  64 S5        30.15S
BLAIR          MOCLDY    63  51  64 SE6       30.17F
COLUMBUS *     CLOUDY    64  48  55 SE6       30.17R
FREMONT        MOCLDY    65  51  60 SE5       30.17S
TEKAMAH        MOCLDY    63  51  65 SE7       30.17S
WAYNE          MOCLDY    62  54  74 SE9       30.15S
$$

NEZ050>053-065>068-078-088>093-230200-
SOUTHEAST NEBRASKA

CITY           SKY/WX    TMP DP  RH WIND       PRES   REMARKS
LINCOLN        MOCLDY    66  48  52 SE8       30.17S
OMAHA EPPLEY   MOCLDY    66  51  58 SE8       30.18S
BEATRICE       MOCLDY    66  48  52 SE6       30.17S
FALLS CITY     PTCLDY    66  52  60 S5        30.19S
NEBRASKA CITY    N/A     63  44  49 SE5       30.19S
PLATTSMOUTH    PTCLDY    63  50  62 SE5       30.18S
$$

NEZ044-045-051>053-067-230200-
OMAHA AREA

CITY           SKY/WX    TMP DP  RH WIND       PRES   REMARKS
OMAHA EPPLEY   MOCLDY    66  51  58 SE8       30.18S
BLAIR          MOCLDY    63  51  64 SE6       30.17F
FREMONT        MOCLDY    65  51  60 SE5       30.17S
MILLARD        MOCLDY    66  51  59 SE5       30.17S
OFFUTT AFB     MOCLDY    63  57  81 E6        30.18S
PLATTSMOUTH    PTCLDY    63  50  62 SE5       30.18S
WAHOO          FAIR      62  52  69 SE6       30.17R
$$



USA.gov is the U.S. government's official web portal to all federal, state and local government web resources and services.